Showing default

HULIANWANG DIGUI-164, 68656

Orbit data source: Space-Track

HULIANWANG DIGUI-164, 68656 is a payload satellite owned by Zhongguo Xingwang (CN) in LEO that was launched on Wed, 08 Apr 2026 UTC via a CHANG ZHENG 6A launch vehicle from the Taiyaun Space Center, China (TSC). Payload-class satellites include a variety of spacecraft equipped with specific instruments for various scientific and technological missions. These include communications satellites like Starlink; space stations such as the ISS; scientific satellites like the Hubble; Earth observation satellites from companies like Planet Labs, Umbra, and HawkEye 360; GPS; miniature CubeSats for education and research; and military/defense satellites.

Loading next visibility...
Identifier
68656, 2026-076A
Orbit
LEO
Country
Flag of CNCN / PRC
Related business
Manufacturer
SECM
Mission
Operational spacecraft
Bus & Motor
XINGWANG S, Unknown motor
Mass
~800 kg wet, ~800 kg dry
Launch date (UTC)
2026-04-08 (1 month ago)
Launch vehicle
CHANG ZHENG 6A
Launch site
Taiyaun Space Center, China (TSC)
Object type
Payload
Rocket body
Debris
Shape & HBR
Unknown shape, 14.5 m
Radar Cross Section
RCS unknown

Expand to show TLE details & history
Last TLE update: 9 hours ago

TLE from 9 hours ago
0 HULIANWANG DIGUI-164
1 68656U 26076A   26140.54352605 -.00000382  00000-0 -73089-3 0  9990
2 68656  86.4956  53.2627 0003289  84.8560 275.2958 13.40062253  5705
Epoch: 2026-05-20T13:02Z
TLE epoch observation values (Epoch: 2026-05-20T13:02:40.650Z)
Latitude
-0.00006°
Longitude
-20.60825°
Altitude
1,111.738 km
Speed
7.297 km/s
True Right ascension
03h 33m 03s
True Declination
0° 00' 00"
Sunlit
Object was in daylight at epoch
Visualization orbit readout
Latitude
Unknown
Longitude
Unknown
Altitude
Unknown
Speed
Unknown
Apparent Right ascension
Unknown
Apparent Declination
Unknown
Sunlit
N/A
Visualization observer readout
Local Sidereal Time
07:17:48
Azimuth
Unknown
Elevation
Unknown
Doppler factor
Unknown
Orbital elements
Apogee altitude
1,108.606 km
Perigee altitude
1,103.683 km
Semi-major axis
7,484.282 km
Eccentricity
0.00033
Inclination
86.4956°
RAAN
53.2627°
Arg. of periapsis
84.856°
True anomaly
275.25827°
Mean anomaly
275.2958°
Eccentric anomaly
275.27704°
Mean motion
3.35211 °/min
Orbital period
107.4 mins
BSTAR
-0.00073089
Loading maneuver chart data...
Computing Atmospheric mass density...
Loading historical data...
Loading historical data...
Loading historical data...
Loading historical data...
Loading historical data...
Loading historical data...
Loading historical data...

Documentation

Showing up to 5 results
|